Weather in Kamenka

Russia / Orenburg Oblast     52°26′42″N   54°22′20″E
temp.,
°C
wind,
m/s
gust,
m/s
humid.,
%
clouds,
%
prec.,
mm/h
press.,
hPa
HPBL,
m
1 march, mon
mon123:00−13nw349796 0.4 101088
02:00−16nw239688 0.0 101265
05:00−17nw249790 0.1 101491
08:00−17nw249798 0.1 1016120
11:00−16nw349587 0.1 1018179
14:00−14nw349376 0.0 1019279
17:00−15wnw359486 0.0 1020307
20:00−19wnw239961 0.0 102120
2 march, tue
tue223:00−21w2310046 0.0 102220
02:00−22w3310077 0.0 102224
05:00−23sw2310068 0.0 102121
08:00−22ssw4710074 0.0 1019111
11:00−17ssw7129786 0.1 1018280
14:00−13ssw81494100 0.2 1014389
17:00−9sw81493100 1.1 1011694
20:00−6sw81592100 0.7 1008716
3 march, wed
wed323:00−4sw91694100 1.1 1005672
02:00−4sw81495100 1.1 1003621
05:00−4sw71295100 2.0 1003519
08:00−4wsw5896100 0.6 1002274
11:00−3wsw3596100 0.8 1003260
14:00−2wnw3493100 0.2 1003422
17:00−4wnw349582 0.3 100384
20:00−8wnw229830 0.0 100421
4 march, thu
thu423:00−6nw379664 0.2 1006314
02:00−9wnw379795 0.1 1006135
05:00−12wnw479793 0.2 1008116
08:00−14w469899 0.1 1009113
11:00−12w479699 0.1 1011245
14:00−9wsw6109395 0.0 1011368
17:00−7sw7129397 0.1 1011486
20:00−6sw81493100 0.1 1010686
5 march, fri
fri523:00−5sw91691100 0.3 1009866
02:00−3sw111893100 0.4 1006861
05:00−2sw111889100 0.7 1005925
08:00−3sw121890100 0.1 1005894
11:00−2wsw111793100 0.7 1006918
14:000wsw91493100 0.5 10081022
17:000wsw71197100 1.1 1011713
20:00−4wnw2690100 1.5 1013216